AU224 Weather Reports


time (UTC)temp
C
wind
direction
speed
KPH
gust
KPH
rain 1hr
cm
rain 24hr
cm
rain mn
cm
humidity
%
barometer
mb
20260506123048 16 0 0.0 6.4 0.00 0.00 0.00 58 1001.9
20260506121545 16 0 0.0 3.2 0.00 0.00 0.00 58 1002.0
20260506120049 16 58 0.0 11.3 0.00 0.00 0.00 57 1002.0
20260506114550 16 0 4.8 16.1 0.00 0.00 0.00 58 1002.0
20260506113051 16 0 0.0 11.3 0.00 0.00 0.00 57 1002.3
20260506111543 17 66 3.2 14.5 0.00 0.00 0.00 55 1002.4
20260506110055 17 0 0.0 9.7 0.00 0.00 0.00 55 1002.2
20260506104551 17 0 0.0 11.3 0.00 0.00 0.00 56 1002.6
20260506103050 17 0 0.0 8.0 0.00 0.00 0.00 55 1002.8
20260506101553 16 0 3.2 8.0 0.00 0.00 0.00 58 1003.1
20260506100104 16 360 0.0 9.7 0.00 0.00 0.00 60 1003.3
20260506094550 16 0 0.0 6.4 0.00 0.00 0.00 59 1003.1
20260506093046 15 0 0.0 6.4 0.00 0.00 0.00 62 1003.1
20260506091542 15 0 0.0 1.6 0.00 0.00 0.00 65 1003.3
20260506090045 15 0 0.0 4.8 0.00 0.00 0.00 61 1003.4
20260506084607 14 0 0.0 4.8 0.00 0.00 0.00 63 1003.3
20260506083046 14 0 0.0 4.8 0.00 0.00 0.00 63 1003.4
20260506081553 13 0 0.0 0.0 0.00 0.00 0.00 66 1003.4
20260506073051 13 0 0.0 0.0 0.00 0.00 0.00 67 1003.4
20260506071551 12 0 0.0 0.0 0.00 0.00 0.00 72 1003.6
20260506061548 11 0 0.0 3.2 0.00 0.00 0.00 76 1003.6
20260506044637 7 0 0.0 0.0 0.00 0.00 0.00 82 1003.9
20260506043043 7 0 0.0 0.0 0.00 0.00 0.00 82 1004.0
20260506041556 7 0 0.0 0.0 0.00 0.00 0.00 82 1004.1
20260506040051 7 0 0.0 0.0 0.00 0.00 0.00 83 1004.2
20260506034621 7 0 0.0 0.0 0.00 0.00 0.00 83 1004.3
20260506033045 7 0 0.0 0.0 0.00 0.00 0.00 83 1004.6
20260506031546 7 0 0.0 0.0 0.00 0.00 0.00 82 1004.6
20260506030049 7 0 0.0 0.0 0.00 0.00 0.00 82 1004.8
20260506024544 7 0 0.0 0.0 0.00 0.00 0.00 81 1004.9
20260506023108 7 0 0.0 0.0 0.00 0.00 0.00 80 1005.0
20260506021547 7 0 0.0 0.0 0.00 0.00 0.00 80 1005.1
20260506020051 7 0 0.0 0.0 0.00 0.00 0.00 79 1005.0
20260506014550 7 0 0.0 0.0 0.00 0.00 0.00 78 1005.2
20260506013049 7 0 0.0 0.0 0.00 0.00 0.00 78 1005.0
20260506011601 7 0 0.0 0.0 0.00 0.00 0.00 78 1005.2
20260506010059 8 0 0.0 0.0 0.00 0.00 0.00 77 1005.4
20260506004600 8 0 0.0 0.0 0.00 0.00 0.00 77 1005.3
20260506003103 8 0 0.0 0.0 0.00 0.00 0.00 77 1005.3
20260506001554 9 0 0.0 0.0 0.00 0.00 0.00 77 1005.4
20260506000051 9 0 0.0 0.0 0.00 0.00 0.00 77 1005.7
20260505234613 9 0 0.0 0.0 0.00 0.00 0.00 76 1005.8
20260505233042 10 0 0.0 0.0 0.00 0.00 0.00 76 1005.9
20260505231549 10 0 0.0 0.0 0.00 0.00 0.00 77 1005.9
20260505230050 10 0 0.0 0.0 0.00 0.00 0.00 78 1005.8
20260505224557 10 0 0.0 0.0 0.00 0.00 0.00 78 1006.0
20260505223051 10 0 0.0 6.4 0.00 0.00 0.00 78 1006.1
20260505221549 10 0 0.0 9.7 0.00 0.00 0.00 78 1006.0
20260505214554 11 187 1.6 8.0 0.00 0.00 0.00 77 1006.0
20260505213101 11 180 0.0 8.0 0.00 0.00 0.00 76 1006.1
20260505211554 11 0 0.0 11.3 0.00 0.00 0.00 75 1005.7
20260505210049 12 0 0.0 17.7 0.00 0.00 0.00 74 1005.7
20260505204548 12 0 3.2 17.7 0.00 0.00 0.00 74 1005.9
20260505203043 12 360 11.3 27.4 0.00 0.00 0.00 71 1005.9
20260505201545 13 184 6.4 22.5 0.00 0.00 0.00 71 1006.0
20260505200051 13 295 3.2 25.7 0.00 0.00 0.00 75 1006.0
20260505194549 13 0 3.2 16.1 0.00 0.00 0.00 74 1005.6
20260505193052 13 0 0.0 6.4 0.00 0.00 0.00 74 1005.3
20260505191556 13 0 0.0 0.0 0.00 0.00 0.00 73 1004.9
20260505190048 13 0 0.0 4.8 0.00 0.00 0.00 73 1004.8
20260505184543 13 0 0.0 6.4 0.00 0.00 0.00 73 1004.8
20260505183039 13 274 4.8 9.7 0.00 0.00 0.00 71 1004.6
20260505181539 14 360 4.8 9.7 0.00 0.00 0.00 71 1004.3
20260505180048 14 0 0.0 6.4 0.00 0.00 0.00 71 1004.0
20260505174605 14 0 0.0 0.0 0.00 0.00 0.00 71 1003.8
20260505173043 14 0 0.0 0.0 0.00 0.00 0.00 70 1003.5
20260505171543 15 0 1.6 12.9 0.00 0.00 0.00 67 1003.4
20260505170120 15 325 1.6 12.9 0.00 0.00 0.00 66 1003.7
20260505164550 15 287 1.6 9.7 0.00 0.00 0.00 64 1003.9
20260505163046 15 275 3.2 14.5 0.00 0.00 0.00 63 1004.0
20260505161553 15 291 8.0 19.3 0.00 0.00 0.00 62 1004.2
20260505153056 17 268 6.4 17.7 0.00 0.00 0.00 56 1003.8
20260505151554 17 281 8.0 17.7 0.00 0.00 0.00 55 1003.9
20260505124550 18 270 19.3 30.6 0.00 0.00 0.00 58 1003.8